www.pogodaiklimat.ru
Время
(UTC), дата
22 29.05
23 29.05
00 30.05
01 30.05
02 30.05
03 30.05
04 30.05
05 30.05
06 30.05
07 30.05
08 30.05
09 30.05
10 30.05
11 30.05
12 30.05
13 30.05
14 30.05
15 30.05
16 30.05
17 30.05
18 30.05
19 30.05
20 30.05
21 30.05
22 30.05
23 30.05
00 31.05
01 31.05
02 31.05
03 31.05
04 31.05
05 31.05
06 31.05
07 31.05
08 31.05
09 31.05
10 31.05
11 31.05
12 31.05
13 31.05
14 31.05
15 31.05
16 31.05
17 31.05
18 31.05
19 31.05
20 31.05
21 31.05
22 31.05
23 31.05
00 1.06
01 1.06
02 1.06
03 1.06
04 1.06
05 1.06
06 1.06
07 1.06
08 1.06
09 1.06
10 1.06
11 1.06
12 1.06
13 1.06
14 1.06
15 1.06
16 1.06
17 1.06
18 1.06
19 1.06
20 1.06
21 1.06
22 1.06
23 1.06
00 2.06
01 2.06
02 2.06
03 2.06
04 2.06
05 2.06
06 2.06
07 2.06
08 2.06
09 2.06
10 2.06
11 2.06
12 2.06
13 2.06
14 2.06
15 2.06
16 2.06
17 2.06
18 2.06
19 2.06
20 2.06
21 2.06
22 2.06
23 2.06
00 3.06
01 3.06
02 3.06
03 3.06
04 3.06
05 3.06
06 3.06
07 3.06
08 3.06
09 3.06
10 3.06
11 3.06
12 3.06
13 3.06
14 3.06
15 3.06
16 3.06
17 3.06
18 3.06
19 3.06
20 3.06
21 3.06
22 3.06
23 3.06
00 4.06
01 4.06
02 4.06
03 4.06
04 4.06
05 4.06
06 4.06
07 4.06
08 4.06
09 4.06
10 4.06
11 4.06
12 4.06
13 4.06
14 4.06
15 4.06
16 4.06
17 4.06
18 4.06
19 4.06
20 4.06
21 4.06
22 4.06
23 4.06
00 5.06
01 5.06
02 5.06
03 5.06
04 5.06
05 5.06
06 5.06
07 5.06
08 5.06
09 5.06
10 5.06
11 5.06
12 5.06
13 5.06
14 5.06
15 5.06
16 5.06
17 5.06
18 5.06
19 5.06
20 5.06
21 5.06
Ветер
(напр.,м/с)
Видим. Явления Облачность Т
(С)
Тd
(С)
f
(%)
Тe
(С)
Тes
(С)
Комфортность P
(гПа)
Po
(гПа)
Тmin
(С)
Tmax
(С)
R
(мм)
R24
(мм)
S
(см)
СВ 1-1
{2}
70 км 1/0
[Ci fib]
+10.3 +4.9 69 +10 +10 1022.9 976.1
штиль 0-1
{1}
70 км 1/0
[Ci fib]
+10.5 +5.2 70 +10 +10 1022.8 976.1
СЗ 1-2
{10}
70 км 1/0
[Ci fib]
+9.5 +4.9 73 +9 +9 1022.9 976.0
З 1-2
{3}
70 км 1/0
[Ci fib]
+9.2 +5.2 76 +9 +9 1022.7 975.8
СЗ 1-1
{3}
70 км ясно +8.9 +4.9 76 +8 +8 1022.6 975.6
СЗ 2-2
{3}
60 км 3/0
[Ci fib]
+7.6 +4.4 80 +6 +6 1022.6 975.4
штиль 0-1
{3}
60 км 3/0
[Ci fib]
+7.4 +4.4 81 +7 +7 1022.6 975.4
С 2-3
{3}
60 км 5/0
[Ac trans Ci sp]
+10.1 +5.1 71 +9 +10 1022.3 975.5
СВ 3 55 км 4/0
[Ac trans Ci sp]
+12.4 +3.9 56 +11 +13 1022.2 975.8 +7.1 +18.0
В 3-4
{5}
70 км 4/0
[Ac trans Ci sp]
+13.7 +3.5 50 +13 +17 1021.9 975.7
СВ 4-7
{7}
>70 км 3/0
[Ac As Ci sp]
+15.8 +4.8 48 +15 +21 1021.4 975.6
СВ 5 >70 км 3/1 1500 м
[Cu hum Ci sp]
+17.1 +3.2 39 +16 +23 1020.9 975.3
СВ 4-7
{8}
>70 км 5/4 1500 м
[Cu med, cong Ci sp]
+17.3 +3.5 40 +17 +23 1020.5 974.9
С 5-6
{8}
70 км 6/5 1500 м
[Cu med, cong Ac trans]
+17.0 +3.3 40 +16 +20 1020.3 974.7
СВ 5-7
{9}
70 км 9/8 1500 м
[Cu Sc]
+17.5 +3.9 40 +17 +18 1020.0 974.5
С 3-6
{10}
70 км 9/8 1500 м
[Cu Sc]
+17.3 +4.0 41 +17 +19 1019.8 974.3
СВ 5-8
{8}
70 км 8/5 1500 м
[Cu Sc Ac lent Ci sp]
+17.2 +2.7 38 +17 +19 1019.3 973.8
СВ 4-6
{10}
70 км 8/8 1500 м
[Cu Sc]
+18.1 +2.7 36 +18 +19 1019.0 973.6
С 6-9
{9}
70 км 9/8 1500 м
[Cu Sc]
+17.4 +3.1 38 +17 +17 1019.0 973.5
СВ 5-6
{8}
65 км 8/6 1500 м
[Cu Sc Ac lent Ci sp]
+16.4 +3.6 42 +16 +16 1018.9 973.3
СВ 5 70 км 9/9 1500 м
[Cu Sc]
+16.3 +3.2 41 +15 +15 1019.3 973.6 +12.3 +19.0
СВ 4-6
{9}
70 км 9/9 1500 м
[Cu Sc]
+15.9 +2.2 40 +15 +15 1019.6 973.8
СВ 5-7
{9}
70 км 9/9 1500 м
[Sc]
+15.2 +2.1 41 +14 +14 1020.3 974.4
С 4-6
{9}
70 км 9/9 2000 м
[Sc]
+14.6 +2.1 43 +14 +14 1020.4 974.4
С 4-6
{6}
70 км 9/9 2000 м
[Sc]
+13.6 +1.9 45 +12 +12 1020.5 974.3
СВ 3-4
{5}
70 км 3/1 2000 м
[Sc Ac trans]
+11.0 +2.3 55 +9 +9 1020.9 974.3
СВ 2-4
{9}
70 км 4/3 2000 м
[Sc Ac trans]
+10.9 +2.4 56 +10 +10 1020.8 974.2
С 3-5
{5}
70 км 1/1 2000 м
[Sc Ac trans]
+9.5 +2.6 62 +7 +7 1020.6 973.8
С 1-2
{5}
70 км 1/1 2000 м
[Sc Ac trans]
+8.9 +2.7 65 +9 +9 1020.5 973.6
С 2-3
{5}
70 км 1/1 2000 м
[Sc Ac trans]
+7.9 +2.5 69 +6 +6 1020.5 973.4
СЗ 2-3
{3}
70 км 6/6 1500 м
[Sc Ac trans]
+8.5 +3.2 69 +7 +7 1020.5 973.5
СЗ 2-2
{3}
70 км 4/3 1500 м
[Sc Ci sp]
+9.3 +3.5 67 +8 +9 1020.2 973.4
С 2 70 км 3/0
[Ci sp]
+11.3 +4.0 61 +10 +13 1020.2 973.7 +7.9 +16.4
СВ 3-5
{5}
70 км 3/0
[Ci sp]
+13.2 +5.0 58 +12 +17 1020.0 973.8
СВ 3-4
{6}
70 км 4/1 1500 м
[Cu hum Ci sp]
+14.1 +4.4 52 +13 +20 1020.0 974.0
СВ 3 >70 км 5/3 1500 м
[Cu hum Ci sp]
+15.8 +4.0 45 +15 +23 1019.7 973.9
СВ 4-6
{7}
>70 км 5/5 1500 м
[Cu hum Ci fib]
+15.9 +2.9 42 +15 +21 1019.7 973.9
СВ 3-6
{8}
>70 км 3/3 1500 м
[Cu hum Ci sp]
+17.2 +1.8 35 +17 +28 1019.2 973.7
С 2-5
{8}
>70 км 4/3 1500 м
[Cu hum Ci sp]
+17.8 +1.5 33 +18 +30 опасность
простуды
1019.1 973.6
СВ 3-8
{10}
>70 км 9/3 1500 м
[Cu hum Ci]
+17.7 +2.0 35 +18 +25 1018.9 973.4
С 3-6
{6}
>70 км 9/1 1500 м
[Cu hum Ci sp]
+19.8 +3.0 33 +20 +28 1018.4 973.3
В 2-5
{10}
>70 км 8/1 2000 м
[Cu hum Ci sp]
+19.3 +2.8 33 +20 +27 1018.3 973.1
В 3-7
{7}
>70 км 5/1 2000 м
[Cu hum Ci sp]
+19.8 +2.5 32 +20 +24 1018.1 973.0
В 3-5
{8}
>70 км 4/1 2000 м
[Sc diur, vesp Ac lent Ci sp]
+19.1 +2.8 34 +20 +21 1018.2 973.0
В 3 >70 км 3/1 2000 м
[Sc Ac lent Ci sp]
+18.6 +3.3 36 +19 +19 1018.6 973.3 +11.2 +20.4
СВ 4-5
{6}
70 км 4/0
[Ac lent Ci fib]
+16.5 +4.2 44 +16 +16 1019.2 973.6
СВ 5-7
{8}
70 км 3/0
[Ac lent Ci fib]
+14.9 +4.1 48 +14 +14 1020.1 974.2
СВ 3-3
{8}
70 км 1/0
[Ac lent Ci fib]
+13.6 +4.5 54 +13 +13 1020.8 974.7
СВ 3-4
{5}
70 км 3/0
[Ac trans Ci fib]
+12.0 +4.5 60 +11 +11 1021.1 974.7
В 2-3
{5}
70 км 4/0
[Ac trans]
+12.2 +4.9 61 +11 +11 1021.3 974.9
В 2-4
{8}
70 км 3/3 2000 м
[Sc]
+12.5 +5.2 61 +12 +12 1021.3 975.0
В 1-2
{5}
70 км 1/1 2000 м
[Sc]
+11.5 +5.0 64 +12 +12 1021.3 974.8
СВ 2-3
{3}
70 км ясно +9.8 +5.1 73 +8 +8 1021.4 974.6
СВ 3-5
{5}
70 км ясно +9.3 +5.3 76 +7 +7 1021.0 974.2
СВ 1-2
{3}
70 км ясно +9.8 +5.5 75 +9 +10 1020.9 974.2
СВ 2-3
{3}
70 км ясно +11.6 +6.6 71 +11 +12 1020.7 974.3
СВ 4 70 км ясно +14.3 +7.8 65 +13 +15 1020.2 974.2 +8.2 +18.6
СВ 3-6
{6}
60 км ясно +15.8 +7.8 59 +15 +21 1020.2 974.5
СВ 5-9
{10}
60 км ясно +18.0 +8.7 55 +18 +23 1019.8 974.4
СВ 6 60 км 1/1 1440 м
[Cu hum]
+20.0 +8.2 47 +21 +26 комфорт 1019.3 974.2
В 5-10
{10}
60 км 1/1 1500 м
[Cu hum]
+22.0 +6.5 37 +23 +31 комфорт 1018.8 974.0
В 6-10
{10}
70 км 1/1 1500 м
[Cu hum]
+22.4 +6.6 36 +23 +30 комфорт 1018.6 973.9
В 5-8
{10}
70 км 1/1 2000 м
[Sc]
+23.0 +6.2 34 +24 +32 комфорт 1018.2 973.6
В 6-9
{10}
70 км 1/1 2000 м
[Sc]
+23.7 +5.5 31 +24 +29 комфорт 1017.8 973.3
В 4-8
{8}
70 км 1/1 2000 м
[Sc]
+24.3 +6.3 31 +24 +32 комфорт 1017.5 973.1
В 3-6
{10}
70 км 1/1 2000 м
[Sc]
+24.6 +6.6 32 +25 +32 комфорт 1016.9 972.6
В 3-5
{8}
70 км 1/1 2000 м
[Sc]
+24.0 +5.6 30 +24 +28 комфорт 1016.7 972.3
В 3-6
{6}
70 км 1/1 2000 м
[Sc]
+23.9 +6.8 33 +24 +26 комфорт 1016.5 972.1
СВ 3 60 км 1/1 2000 м
[Sc]
+23.0 +6.4 34 +24 +24 комфорт 1016.6 972.1 +14.2 +24.9
В 1-2
{5}
65 км 1/1 2000 м
[Sc Ci fib]
+20.9 +7.3 41 +23 +23 комфорт 1016.9 972.1
штиль 0-1
{2}
65 км 1/0
[Ci fib]
+17.7 +7.5 51 +18 +18 1017.8 972.5
СЗ 2-2
{5}
65 км 1/0
[Ci fib]
+17.1 +7.3 52 +17 +17 1018.3 972.8
СЗ 1-3
{3}
60 км 1/0
[Ci fib]
+14.8 +7.3 61 +15 +15 1018.5 972.7
СВ 1-2
{3}
60 км 1/0
[Ci fib]
+14.9 +6.3 56 +16 +16 1018.5 972.7
З 2-2
{5}
60 км 1/0
[Ci fib]
+13.5 +6.6 63 +13 +13 1018.4 972.4
З 1-2
{2}
60 км 1/0
[Ci fib]
+13.2 +6.4 63 +14 +14 1018.4 972.3
СЗ 2-3
{3}
60 км 1/0
[Ci fib]
+11.6 +6.7 72 +11 +11 1018.4 972.1
штиль 0-1
{3}
60 км 1/0
[Ci fib]
+10.3 +6.4 77 +10 +10 1018.9 972.3
З 1-1
{1}
60 км 1/0
[Ci fib]
+9.4 +6.2 80 +9 +9 1019.0 972.3
В 1-1
{2}
60 км 1/0
[Ci fib]
+12.6 +7.5 71 +13 +14 1018.7 972.5
В 1 60 км 1/0
[Ci fib]
+14.0 +7.9 67 +14 +18 1018.4 972.5 +8.9 +23.0
СВ 1-3
{3}
50 км 1/0
[Ci fib]
+16.7 +9.2 61 +18 +25 1018.3 972.8
В 2-3
{3}
50 км 1/0
[Ci fib]
+19.1 +8.3 50 +20 +30 1017.8 972.7
В 2 60 км 1/1 1500 м
[Cu hum Ci fib]
+21.3 +9.1 46 +23 +35 комфорт 1017.1 972.3
СВ 3-5
{5}
60 км 1/1 1500 м
[Cu hum Ci fib]
+22.4 +6.3 35 +23 +35 комфорт 1016.5 971.9
СВ 3-7
{7}
70 км 3/1 1500 м
[Cu hum Ci fib]
+23.4 +8.2 38 +25 +37 комфорт 1015.6 971.2
СВ 3-6
{8}
70 км 1/1 1500 м
[Cu hum Ci fib]
+24.7 +7.0 32 +25 +38 комфорт 1014.8 970.6
СВ 2-5
{6}
70 км 1/1 2000 м
[Cu hum Ci fib]
+24.9 +6.4 31 +25 +39 комфорт 1014.1 970.0
С 2-3
{7}
70 км 4/1 2000 м
[Cu hum Ci fib]
+25.1 +6.1 30 +25 +36 комфорт 1013.5 969.4
ЮВ 1-1
{7}
70 км 5/1 2000 м
[Cu hum Ci fib]
+24.6 +5.5 29 +24 +33 комфорт 1012.8 968.7
В 2-4
{5}
70 км 6/1 2000 м
[Cu hum Ci fib]
+25.9 +6.8 30 +26 +30 жарко 1011.9 968.0
ЮЗ 1-3
{4}
60 км 6/1 2000 м
[Sc diur, vesp Ci fib]
+25.1 +5.8 29 +25 +27 комфорт 1011.5 967.5
СВ 2 60 км 5/1 2000 м
[Sc diur, vesp Ci fib]
+25.4 +6.8 30 +25 +26 комфорт 1011.0 967.1 +13.8 +26.5
СЗ 3-4
{5}
65 км 6/0
[Ac lent Ci sp]
+22.7 +6.8 36 +23 +23 комфорт 1011.2 966.9
С 2-3
{4}
60 км 6/0
[Ci sp]
+20.5 +7.3 42 +22 +22 комфорт 1011.6 966.9
ЮЗ 1-2
{5}
60 км 8/0
[Ci sp]
+18.9 +7.6 48 +21 +21 комфорт 1011.7 966.8
ЮЗ 2-3
{3}
60 км 8/0
[Ci sp]
+16.5 +8.4 59 +17 +17 1011.8 966.6
ЮЗ 1-1
{3}
60 км 8/0
[Ci fib]
+14.3 +8.1 66 +15 +15 1011.8 966.2
штиль 0-1
{5}
60 км 8/0
[Ci fib]
+14.2 +8.4 68 +14 +14 1011.3 965.7
С 1-1
{1}
60 км 8/0
[Ac cast Ci fib]
+12.7 +8.2 74 +13 +13 1010.9 965.1
С 1-2
{2}
60 км 8/0
[Ac cast Ci sp]
+11.7 +8.2 79 +12 +12 1010.3 964.4
СЗ 1-1
{2}
65 км 8/0
[Ac cast Ci sp]
+11.6 +8.2 80 +11 +11 1009.7 963.8
СВ 1-2
{2}
70 км 8/0
[Ac cast Ci sp]
+10.6 +7.6 82 +10 +10 1009.5 963.4
СВ 1-1
{2}
60 км 9/0
[Ac cast Ci sp]
+11.7 +8.7 82 +12 +13 1009.1 963.2
В 1 50 км 9/0
[Ac cast Ci sp]
+14.1 +9.8 75 +14 +18 1008.4 963.0 +10.3 +25.6
В 1-2
{2}
50 км 9/0
[Ac cast Ci sp]
+17.5 +10.2 62 +19 +24 1007.5 962.6
В 1-2
{3}
50 км 9/1 1500 м
[Cu med, cong Ac cast Ci sp]
+21.3 +9.9 48 +23 +29 комфорт 1006.6 962.3
В 1 50 км 9/3 1500 м
[Cb cap Ac cast Ci sp]
+23.8 +9.2 39 +25 +31 комфорт 1005.7 961.8
СВ 2-3
{4}
50 км гроза без осадков 9/4 1500 м
[Cb cap Ci sp]
+24.5 +9.7 39 +25 +34 комфорт 1004.7 961.0
С 2-4
{4}
50 км в посл. час гроза 9/6 1500 м
[Cb cap Ci sp]
+23.7 +6.9 34 +24 +30 комфорт 1004.6 960.7
В 2-5
{12}
45 км гроза, ливневой дождь 9/3 1500 м
[Cb cap Ci sp]
+20.5 +9.4 49 +23 +33 комфорт 1004.5 960.2 0.0
ЮВ 2-4
{6}
45 км гроза без осадков {ливн. осадки} 9/3 1500 м
[Cb cap Ci sp]
+23.9 +7.0 34 +24 +33 комфорт 1003.0 959.2
ЮЗ 5-10
{12}
45 км гроза, ливневой дождь 9/8 1500 м
[Cb cap Ci sp]
+18.3 +9.6 57 +18 +19 1004.4 959.8
Ю 2-5
{12}
45 км в посл. час гроза {ливн. осадки} 9/6 600 м
[Cb cap Ci sp]
+18.2 +12.0 67 +19 +22 1003.8 959.2 0.2
ЮВ 3-5
{6}
60 км 8/1 1500 м
[Cu med, cong Ci sp]
+21.5 +9.7 47 +23 +27 комфорт 1001.6 957.6
ЮВ 2-3
{5}
60 км 9/1 1500 м
[Cu med, cong Ac trans Ci sp]
+22.5 +8.7 41 +24 +25 комфорт 1000.9 957.0
Ю 1 60 км {гроза, ливн. осадки} 9/1 1500 м
[Cu Sc Ac trans Ci sp]
+21.7 +8.4 42 +23 +23 комфорт 1000.7 956.7 +14.2 +25.3
В 1-1
{2}
60 км 9/1 1200 м
[Cb cap Ac trans Ci fib]
+19.4 +10.1 55 +22 +22 комфорт 1000.9 956.6
З 5 60 км в посл. час ливневой дождь 9/8 330 м
[Cb cap Ac trans]
+19.1 +10.7 58 +20 +20 1001.5 957.1
Ю 3-5
{9}
60 км в посл. час ливневой дождь 9/9 1200 м
[Cb cap]
+17.9 +10.6 62 +18 +18 1001.9 957.3 0.2
Ю 1-3
{6}
60 км слаб. ливневой дождь 9/9 1200 м
[Cb cap]
+17.3 +10.8 66 +18 +18 1001.1 956.5
З 1-2
{3}
60 км в посл. час ливневой дождь 9/0
[Ac trans]
+16.0 +11.0 72 +17 +17 1000.5 955.7
ЮВ 1-2
{9}
60 км {ливн. осадки} 9/0
[Ac trans]
+15.4 +11.1 76 +16 +16 1000.0 955.2 0.0
Ю 1-3
{3}
60 км 9/0
[Ac trans]
+14.3 +11.7 84 +15 +15 999.6 954.6
Ю 2-4
{4}
60 км 9/0
[Ac trans]
+15.4 +11.0 75 +15 +15 999.0 954.2
ЮЗ 1-3
{4}
30 км слаб. дождь 10/0
[As op]
+14.7 +11.6 82 +15 +15 998.9 954.0 0.2
ЮВ 1-2
{3}
20 км слаб. дождь 10/0
[As op]
+14.0 +12.4 90 +14 +14 998.7 953.7
ЮВ 1-2
{3}
20 км слаб. дождь 10/3 1500 м
[Sc As op]
+13.8 +12.5 92 +14 +14 998.2 953.2
Ю 2 20 км в посл. час дождь 10/6 600 м
[Cu Sc As op]
+14.1 +12.4 89 +14 +14 997.8 952.9 +13.7 +21.5 2 2.3
Ю 1-3
{4}
15 км слаб. дождь 10/9 450 м
[Cu Sc]
+14.1 +12.6 91 +14 +15 997.7 952.8
Ю 1-2
{3}
45 км в посл. час дождь 9/4 450 м
[Cu Sc Ac trans]
+15.5 +13.1 86 +16 +20 997.1 952.4
Ю 3 45 км слаб. дождь 9/6 480 м
[Cu Sc Ac trans]
+16.3 +12.8 80 +16 +18 996.6 952.1 0.5
Ю 4-7
{7}
30 км слаб. дождь 10/3 480 м
[Cu Sc Ac As]
+16.5 +13.9 85 +16 +18 996.6 952.1
ЮЗ 4-8
{8}
35 км в посл. час дождь 10/4 570 м
[Cu med, cong Ac As]
+17.8 +13.2 74 +18 +20 996.1 951.8
ЮЗ 5-8
{8}
60 км {дождь} 9/4 800 м
[Cu med, cong Ac As]
+19.4 +11.2 59 +20 +23 995.2 951.2 0.1
ЮЗ 5-10
{10}
50 км слаб. ливневой дождь, в посл. час гроза 9/6 900 м
[Cb cap Ac As Ci sp]
+17.9 +11.9 68 +18 +20 995.0 950.8
ЮЗ 4 50 км в посл. час ливневой дождь 9/8 900 м
[Cb cap Ac As]
+18.3 +11.6 65 +18 +20 995.0 950.8
ЮЗ 5 60 км в посл. час гроза {ливн. осадки} 9/4 900 м
[Cu Sc Ac As]
+17.8 +10.8 64 +17 +19 994.9 950.6 0.0
Ю 2-5
{8}
60 км 9/5 900 м
[Cu Sc Ac As]
+17.1 +10.0 63 +17 +19 995.0 950.6
З 4 60 км слаб. ливневой дождь 9/5 900 м
[Cb cap Ac As]
+16.7 +9.7 63 +16 +17 995.8 951.3
ЮЗ 3 60 км слаб. ливневой дождь {гроза} 9/6 900 м
[Cb cap Ac As]
+14.9 +9.8 72 +14 +14 996.3 951.5 +14.0 +21.1 0.0
Ю 1-2
{4}
60 км в посл. час ливневой дождь 9/3 1500 м
[Sc As trans]
+14.8 +10.5 75 +15 +15 996.5 951.7
Ю 2-4
{4}
60 км 9/0
[Ac trans]
+14.4 +10.7 78 +14 +14 996.5 951.7
ЮЗ 3-4
{4}
60 км {ливн. осадки} 9/3 1500 м
[Sc Ac trans]
+14.0 +10.4 79 +13 +13 997.0 952.1 0.0
ЮЗ 4-6
{6}
50 км 9/9 840 м
[Sc]
+13.8 +10.2 79 +12 +12 997.6 952.6
ЮЗ 4-7
{8}
20 км слаб. дождь 10/10 540 м
[Sc]
+12.0 +10.4 90 +10 +10 998.5 953.2
З 4-6
{9}
10 км слаб. дождь 10/4 960 м
[Sc As op]
+10.8 +9.2 90 +8 +8 999.1 953.6 2
З 2-2
{5}
15 км в посл. час дождь 9/9 1020 м
[Sc]
+10.8 +9.3 90 +9 +9 999.1 953.6
ЮЗ 2-3
{5}
15 км 9/9 1110 м
[Sc]
+10.6 +8.8 89 +9 +9 999.3 953.7
З 3-4
{5}
15 км в посл. час дождь 9/9 600 м
[Sc]
+10.9 +9.2 89 +9 +9 999.5 954.0 0.0
З 2-4
{5}
20 км в посл. час дождь 9/9 270 м
[Cu Sc]
+10.6 +8.5 87 +9 +9 999.8 954.2
З 2-3
{3}
20 км 9/9 270 м
[Cu Sc]
+10.7 +8.7 87 +9 +9 1000.2 954.6
ЮЗ 1 30 км {дождь} 9/9 200 м
[Cu Sc]
+11.1 +8.5 84 +11 +11 1000.8 955.2 +10.5 +15.0 0.0 2.1
ЮЗ 2-3
{5}
35 км 9/9 300 м
[Cu Sc]
+11.5 +8.5 82 +10 +11 1000.7 955.2
ЮЗ 2-4
{4}
35 км слаб. дождь 10/9 400 м
[Cu Sc]
+11.9 +8.1 78 +11 +11 1000.7 955.2
ЮЗ 2 35 км в посл. час дождь 10/9 600 м
[Cu Sc]
+12.6 +8.4 76 +12 +12 1000.3 955.0 0.0
ЮЗ 4-6
{7}
9000 м слаб. ливневой дождь 10/9 540 м
[Cu Sc]
+12.5 +7.3 71 +11 +11 1000.5 955.1
Ю 2-5
{8}
35 км слаб. дождь 10/9 600 м
[Cu Sc]
+12.2 +8.6 79 +11 +12 1000.5 955.1
ЮЗ 3-5
{8}
35 км слаб. дождь 10/9 660 м
[Cu Sc]
+11.8 +7.9 77 +10 +11 1000.6 955.1 0.3
Ю 4-10
{10}
55 км в посл. час дождь 9/6 700 м
[Cu Sc Ac trans]
+14.2 +8.7 69 +13 +15 999.9 954.8
Ю 6-10
{13}
65 км 9/6 960 м
[Cu Sc Ac trans]
+14.1 +7.1 63 +12 +13 1000.0 954.9
ЮЗ 7 65 км в посл. час ливневой дождь 9/8 1000 м
[Cu Sc Ac trans]
+14.2 +7.3 63 +12 +13 999.9 954.8 0.0
ЮЗ 6-11
{13}
65 км {ливн. осадки, дождь} 9/6 1000 м
[Cu Sc Ac trans]
+14.6 +7.6 63 +13 +13 999.7 954.7
ЮЗ 7-11
{14}
65 км в посл. час ливневой дождь 9/8 930 м
[Cu Sc Ac trans]
+14.5 +7.1 61 +13 +13 1000.1 955.1
Ю 6 65 км {ливн. осадки, дождь} 9/6 930 м
[Cu Sc Ac trans]
+14.9 +7.5 61 +13 +13 1000.0 955.0 +11.1 +15.5 0.0
ЮЗ 6 70 км в посл. час ливневой дождь 9/8 960 м
[Cb calv Ac trans]
+14.5 +7.5 63 +13 +13 1000.6 955.5
ЮЗ 4-8
{10}
60 км слаб. ливневой дождь 9/8 960 м
[Cb calv Ac trans]
+12.7 +9.5 81 +11 +11 1001.8 956.4
ЮЗ 5 60 км слаб. ливневой дождь 9/9 960 м
[Cb calv]
+12.4 +10.1 86 +10 +10 1002.5 957.1 0.5
Местоположение метеостанции Штутгарт (Германия): широта 48.68 долгота 9.22 высота над уровнем моря 396 м.
В архиве по умолчанию представлена погода в Штутгарте за последнюю неделю. Архивные данные за месяц целиком и за предыдущие месяцы, начиная с января 2011 года, Вы можете получить, выбрав интересующий диапазон дат из раскрывающегося списка и нажав кнопку "Найти!".
*Определитесь, кто Вы:
Внимание! Время в таблицах - всемирное. Для получения местного времени необходимо прибавить поправку, которая равна 1 ч.
Смотрите также архив погоды в соседних городах и на ближайших метеорологических станциях:
Партнеры нашего сайта:      
Пояснения к столбцам:
  • Ветер - указаны скорость ветра в м/с - средняя за 10 мин, порывы в срок и между сроками (в фигурных скобках) и направление, откуда дует ветер: С - северный,
  • СВ - северо-восточный, В - восточный, ЮВ - юго-восточный, Ю - южный, ЮЗ - юго-западный, З - западный, СЗ - северо-западный.
  • Видимость - горизонтальная дальность видимости в метрах или километрах. При видимости от 1 до 10 км при отсутствии осадков обычно наблюдается дымка, при ухудшении видимости до 1 км и менее - туман. В сухую погоду видимость может ухудшаться дымом, пылью или мглою.
  • Явления - указаны атмосферные явления, наблюдавшиеся в срок или в последний час перед сроком; фигурными скобками обозначены явления, наблюдавшиеся между сроками (за 1-3 часа до срока); квадратными скобками обозначены град или гололедные отложения с указанием их диаметра в мм.
  • Облачность - указаны через наклонную черту общая и нижняя облачность в баллах и высота нижней границы облаков в метрах; квадратными скобками обозначены формы облаков: Ci - перистые, Cs - перисто-слоистые, Cc - перисто-кучевые, Ac - высококучевые, As - высокослоистые, Sc - слоисто-кучевые, Ns - слоисто-дождевые, Cu - кучевые, Cb - кучево-дождевые. Подробнее классификацию облаков см. в Атласе облаков (PDF).
  • T - Температура воздуха - температура, измеренная на высоте 2 м над землей.
  • Td - Температура точки росы - температура, при понижении до которой содержащийся в воздухе водяной пар достигнет насыщения.
  • f - Относительная влажность воздуха - влажноcть воздуха, измеренная на высоте 2 м над землей.
  • Te - Эффективная температура - температура, которую ощущает одетый по сезону человек в тени. Характеристика душности погоды. При расчете учитывается влияние влажности воздуха и скорости ветра на теплоощущения человека.
  • Tes - Эффективная температура на солнце - температура, которую ощущает человек, с поправкой на солнечный нагрев. Характеристика знойности погоды. Зависит от высоты солнца над горизонтом, облачности и скорости ветра. Ночью, в пасмурную погоду, а также при ветре 12 м/с и более поправка равна нулю.
  • P - Атмосферное давление - приведенное к уровню моря атмосферное давление.
  • Po - Атмосферное давление - измеренное на уровне метеостанции атмосферное давление.
  • Tmin - Минимальная температура - минимум температуры воздуха на высоте 2 м над землей.
  • Tmax - Максимальная температура - максимум температуры воздуха на высоте 2 м над землей.
  • R - Количество осадков - Количество выпавших осадков за период времени, мм. При наведении курсора мыши на число - период времени, за который выпало указанное количество осадков.
  • R24 - Количество осадков - Количество выпавших осадков за 24 часа, мм.
  • S - Снежный покров - Высота снежного покрова, см. При наведении курсора мыши на число - состояние снежного покрова и степень покрытия местности в баллах.